Location: Unspecified
(49.8670°N, 0.0000°E)
Time: 04:54:16
(UTC+00:00)

Vanguard 1 - Pass Details

Date: 21 June 2019
Orbit: 655 x 3829 km, 34.2° (Epoch: 16 August)

Event Time Altitude Azimuth Distance (km) Brightness Sun altitude
Rises 00:42:24 0° 199° (SSW) 7,793 - -16.1°
Reaches altitude 10° 00:50:43 10° 184° (S) 6,382 - -15.9°
Exits shadow 00:54:59 15° 173° (S) 5,710 13.4 -15.7°
Maximum altitude 01:01:24 18° 150° (SSE) 4,933 13.2 -15.5°
Drops below altitude 10° 01:09:35 10° 114° (ESE) 4,767 13.5 -15.2°
Sets 01:14:15 0° 97° (E) 5,231 13.9 -14.9°
